#timestamp,LO_Frequency,Hit,StdDev 
1579773615.0,286047004.5,N
1579773615.9,286047004.5,N
1579773635.8,286047011.4,N
1579773655.6,286047011.1,N
1579773675.4,286047013.3,N
1579773695.3,286047014.3,N
1579773715.1,286047012.1,N
1579773735.9,286047014.0,N
1579773755.7,286047011.1,N
1579773775.5,286046997.0,N
1579773795.4,286046990.7,N
1579773815.2,286046994.0,N
1579773835.0,286046996.4,N
1579773835.9,286046996.4,N
1579773855.8,286047001.1,N
1579773875.6,286046994.1,N
1579773895.5,286046979.6,N
1579773915.3,286046969.2,Y
1579773935.1,286046964.5,P
1579773955.9,286046964.2,N
1579773975.7,286046965.6,N
1579773995.5,286046963.0,N
1579774015.4,286046973.7,N
1579774035.2,286046977.1,N
1579774055.1,286046980.4,N
1579774056.0,286046980.4,N
1579774075.8,286046979.0,N
1579774095.6,286046972.5,N
1579774115.5,286046974.8,N
1579774135.3,286046977.5,N
1579774155.2,286046977.0,N
1579774175.9,286046984.8,N
1579774195.7,286046989.2,N
1579774215.6,286046986.5,N
1579774235.4,286046989.7,N
1579774255.2,286046989.3,N
1579774275.1,286046994.8,N
1579774276.0,286046994.8,N
1579774295.8,286046999.7,N
1579774315.7,286046999.0,N
1579774335.5,286046995.3,N
1579774355.3,286046991.8,N
1579774375.2,286046997.9,N
1579774395.9,286046990.7,N
1579774415.7,286046984.6,N
1579774435.6,286046984.7,N
1579774455.4,286046984.6,N
1579774475.2,286046988.1,N
1579774495.1,286046988.1,N
1579774496.0,286046988.1,N
1579774515.8,286046986.9,N
1579774535.7,286046981.3,N
1579774555.5,286046983.5,N
1579774575.3,286046981.9,N
1579774595.2,286046978.5,Y
1579774615.0,286046989.1,P
1579774615.9,286046989.1,P
1579774635.8,286046990.1,P
1579774655.6,286046992.7,Y
1579774675.4,286047000.6,P
1579774695.3,286047003.3,N
1579774715.1,286046999.8,N
1579774735.8,286047005.0,N
1579774755.7,286047006.1,N
1579774775.5,286047006.2,N
1579774795.4,286047009.0,N
1579774815.2,286047004.6,N
1579774835.0,286047006.8,N
1579774835.9,286047006.8,N
1579774855.8,286047006.1,N
1579774875.6,286047006.3,N
1579774895.4,286047009.6,N
1579774915.3,286047007.1,N
1579774935.1,286047008.7,N
1579774955.9,286047003.4,N
1579774975.7,286047000.3,N
1579774995.5,286047005.8,N
1579775015.4,286046997.4,N
1579775035.2,286046990.5,N
1579775055.0,286046993.7,N
1579775055.9,286046993.7,N
1579775075.8,286046995.0,N
1579775095.6,286046996.6,N
1579775115.5,286046987.6,N
1579775135.3,286046972.0,Y
1579775155.1,286046956.3,P
1579775175.9,286046938.9,N
1579775195.7,286046923.3,N
1579775215.5,286046914.6,N
1579775235.4,286046899.5,Y
1579775255.2,286046935.8,P
1579775275.1,286046923.2,P
1579775276.0,286046923.2,P
1579775295.8,286046923.2,Y
1579775315.6,286046991.0,P
1579775335.5,286046992.4,N
1579775355.3,286046991.3,N
1579775375.2,286046993.3,N
1579775395.9,286047005.0,N
1579775415.7,286047010.7,N
1579775435.6,286047007.8,N
1579775455.4,286047012.6,N
1579775475.2,286047021.6,N
1579775495.1,286047025.4,N
1579775496.0,286047025.4,N
1579775515.8,286047035.8,N
1579775535.7,286047040.1,N
1579775555.5,286047045.4,N
1579775575.4,286047040.1,N
1579775595.2,286047045.8,N
1579775615.0,286047044.1,N
1579775615.9,286047044.1,N
1579775635.8,286047044.0,N
1579775655.6,286047052.5,N
1579775675.4,286047063.5,N
1579775695.3,286047065.4,N
1579775715.1,286047071.2,N
1579775735.9,286047069.2,N
1579775755.7,286047071.0,N
1579775775.5,286047067.8,N
1579775795.4,286047066.7,N
1579775815.2,286047064.2,N
1579775835.0,286047064.7,N
1579775835.9,286047064.7,N
1579775855.8,286047069.4,N
1579775875.6,286047074.0,N
1579775895.5,286047076.3,Y
1579775915.3,286047030.9,P
1579775935.1,286047025.8,P
1579775955.9,286047026.8,P
1579775975.7,286047020.9,Y
1579775995.6,286046985.3,P
1579776015.4,286046986.8,N
1579776035.2,286046988.5,N
1579776055.1,286046990.6,N
1579776056.0,286046990.6,N
1579776075.8,286047004.3,N
1579776095.7,286047003.3,N
1579776115.5,286047005.3,N
1579776135.3,286047008.3,N
1579776155.2,286047007.7,N
1579776175.9,286047009.8,N
1579776195.7,286047008.9,N
1579776215.6,286047003.9,N
1579776235.4,286047006.8,N
1579776255.2,286047010.9,N
1579776275.1,286047015.5,N
1579776276.0,286047015.5,N
1579776295.8,286047013.6,N
1579776315.7,286047014.8,N
1579776335.5,286047008.2,N
1579776355.3,286046999.4,N
1579776375.2,286046992.2,N
1579776395.0,286046993.9,N
1579776395.9,286046993.9,N
1579776415.8,286046997.2,N
1579776435.6,286046994.5,N
1579776455.4,286046993.4,N
1579776475.3,286046999.0,N
1579776495.1,286046998.5,N
1579776515.9,286046994.9,N
1579776535.7,286046995.3,N
1579776555.6,286046988.8,N
1579776575.4,286046981.6,N
1579776595.2,286046972.6,Y
1579776615.1,286046971.2,P
1579776616.0,286046971.2,N
1579776635.8,286046974.1,N
1579776655.7,286046975.1,N
1579776675.5,286046961.5,Y
1579776695.3,286046989.7,P
1579776715.2,286046996.1,N
1579776735.0,286046996.0,N
1579776735.9,286046996.0,N
1579776755.8,286046998.7,N
1579776775.6,286047004.0,N
1579776795.5,286046998.4,N
1579776815.3,286046982.7,N
1579776835.1,286046978.5,N
1579776855.9,286046975.5,N
1579776875.7,286046987.5,N
1579776895.5,286046995.9,N
1579776915.4,286046997.9,N
1579776935.2,286046999.6,N
1579776955.1,286047010.2,N
1579776956.0,286047010.2,N
1579776975.8,286047011.2,N
1579776995.6,286047013.4,N
1579777015.5,286047013.8,N
1579777035.3,286047013.9,N
1579777055.1,286047015.5,N
1579777075.9,286047011.5,N
1579777095.7,286047007.1,N
1579777115.6,286046995.3,N
1579777135.4,286046984.6,N
1579777155.2,286046971.5,N
1579777175.1,286046971.0,N
1579777176.0,286046971.0,N
1579777195.8,286046975.8,N
